Temperature
22 22 21 22 25 24 24 28 33 34 34 35 34 34 34 32 31 29 27 27 25 25 25 24 24 23 22 22 21 21 20 20 20 20 20 19 19 19 19 19 19 19 19 19 19 19 19 19 19
22 21 22 25 26 24 26 30 33 34 35 34 34 34 33 31 30 28 27 26 25 25 25 24 24 23 23 22 21 21 20 20 20 20 20 19 19 19 19 19 19 19 19 19 19 19 19 19 19
22 23 25 28 28 28 30 33 34 35 35 34 34 33 32 30 29 28 26 26 24 24 24 24 24 23 23 22 21 21 20 20 20 20 19 19 19 19 19 19 19 19 19 19 19 19 19 19 19
22 25 27 29 31 33 34 35 35 35 35 34 34 33 30 29 29 27 26 25 24 23 24 24 24 23 23 22 22 21 20 20 20 20 20 20 19 19 19 19 19 19 19 19 19 19 20 20 20
24 27 29 31 33 34 36 36 35 35 35 34 34 32 29 28 27 27 26 25 24 23 23 24 24 23 23 22 22 21 21 20 20 20 20 20 20 20 20 20 19 19 19 19 19 20 20 20 20
27 30 31 32 34 35 36 35 35 35 35 34 32 30 28 27 27 27 26 26 25 23 23 24 23 23 23 22 22 21 21 21 21 20 20 20 20 20 20 20 20 20 19 19 19 19 19 19 20
28 30 31 32 34 35 36 35 35 35 35 33 32 31 28 27 27 27 26 26 25 23 23 24 23 23 23 22 22 22 21 21 21 21 20 20 20 20 20 20 20 20 19 19 19 19 19 19 19
28 30 31 33 34 35 36 35 35 35 34 34 33 31 28 27 27 26 26 26 25 23 23 23 23 23 22 22 22 22 21 21 21 21 20 20 20 20 20 20 20 20 20 19 19 19 19 19 19
29 30 30 32 34 35 36 35 35 35 34 33 31 30 29 27 27 27 26 26 25 24 22 22 22 22 22 22 22 22 21 21 21 21 20 20 20 20 20 20 20 19 19 19 19 19 19 19 19
30 29 31 33 35 35 35 35 35 34 33 31 30 29 28 28 27 27 26 26 25 24 23 22 21 21 21 21 21 21 21 21 21 20 20 20 20 19 19 19 19 19 19 19 19 19 19 19 19
31 31 32 33 34 34 34 34 34 33 32 30 29 29 29 28 27 27 26 26 25 24 23 22 21 21 21 20 20 20 20 20 20 20 19 19 19 19 19 19 19 19 19 19 19 19 19 19 19
31 32 32 33 33 33 33 34 33 32 31 29 29 28 29 28 27 27 26 25 24 24 23 23 21 21 21 21 20 20 20 20 20 19 19 19 19 19 19 19 19 18 18 19 19 18 19 18 18
32 32 32 33 33 33 33 33 32 31 30 29 28 28 28 27 27 26 25 24 23 23 23 22 21 21 20 20 20 20 20 20 20 19 19 19 19 19 19 19 19 18 18 18 18 18 18 18 18
32 32 33 33 33 33 33 32 32 30 29 28 27 26 25 25 25 25 24 24 23 22 22 22 21 20 20 20 20 19 19 19 19 19 19 19 19 18 18 18 18 18 18 18 18 18 18 18 18
31 32 32 33 33 33 32 31 30 28 28 27 25 24 23 23 23 23 23 22 22 22 22 21 20 20 19 19 19 18 18 19 19 19 19 18 18 18 18 18 18 18 18 18 18 18 18 18 18
31 31 30 32 33 33 32 29 28 27 26 25 24 23 22 21 21 21 21 21 21 21 21 20 19 19 19 18 18 18 18 18 18 18 18 18 18 18 17 17 17 17 17 17 17 17 18 17 17
30 30 30 30 32 32 32 28 27 27 26 24 23 22 21 20 20 20 20 20 20 20 19 19 19 18 18 18 18 18 18 18 18 18 17 17 17 17 17 17 16 17 17 17 17 17 17 17 17
29 29 29 29 30 31 30 27 27 26 25 24 22 21 20 19 19 19 19 19 19 19 19 19 18 18 18 18 18 17 17 17 17 17 17 17 17 17 16 16 16 16 16 16 17 17 17 17 17
30 29 28 29 30 30 29 27 26 26 25 24 22 21 20 19 19 18 18 18 18 18 18 18 18 18 18 18 17 17 17 17 17 17 16 16 16 16 16 16 16 16 16 16 16 16 16 17 17
30 29 29 29 30 30 28 27 26 25 25 24 22 21 20 20 19 19 18 18 18 18 18 18 18 18 18 17 17 17 17 17 16 16 16 16 16 16 16 15 15 15 16 16 16 16 16 16 17
29 28 28 28 28 29 28 25 23 23 23 23 22 22 21 20 20 19 19 18 18 18 18 18 18 17 17 17 17 17 16 16 16 16 16 16 15 15 15 15 15 15 15 15 15 15 16 16 16
27 28 29 28 27 26 26 23 20 21 22 23 23 22 22 21 20 20 19 18 18 18 17 17 17 17 16 16 16 16 16 16 16 15 15 15 15 15 15 15 15 15 15 15 15 15 15 16 16
29 29 28 27 26 25 24 22 20 19 20 22 23 23 22 21 21 20 19 19 18 18 18 17 17 16 16 16 15 15 15 15 15 15 15 15 15 15 15 15 15 15 14 15 15 15 15 15 16
30 29 26 24 23 22 21 21 20 20 21 22 23 23 22 21 21 20 20 19 19 18 18 18 17 16 16 15 15 15 14 14 14 14 14 14 14 14 14 14 14 14 14 14 14 14 15 15 15
30 27 23 20 19 20 21 21 21 22 23 24 24 23 23 22 21 21 20 19 19 19 18 18 17 16 16 15 15 14 14 14 14 14 14 14 14 14 14 14 14 14 14 14 14 14 14 14 15
29 28 24 22 22 22 21 20 21 23 24 24 24 24 23 22 22 21 20 20 19 19 18 17 17 16 15 15 14 14 14 13 13 13 13 13 13 13 13 13 13 13 13 13 13 13 13 14 14
29 29 29 27 26 24 22 20 21 24 25 25 25 24 23 23 22 21 21 20 19 19 18 17 16 16 15 15 14 14 13 13 13 13 13 13 13 13 13 13 12 12 12 12 12 12 13 13 13
30 30 29 27 26 25 23 22 22 23 24 25 25 24 23 22 22 21 21 20 19 18 17 17 16 15 15 14 14 13 13 13 12 12 12 12 12 12 12 12 12 12 12 12 12 12 12 12 12
29 29 28 28 27 26 25 23 24 24 25 25 25 24 23 22 21 21 20 19 18 17 16 16 15 14 14 13 13 13 12 12 12 12 12 12 11 11 11 11 11 11 11 11 11 11 11 12 12
29 28 28 26 26 27 26 23 26 26 26 25 24 23 22 21 21 20 19 18 17 16 15 15 14 13 13 13 12 12 12 11 11 11 11 11 11 11 11 11 11 11 11 11 11 11 11 11 11
Wind_Speed
14 14 11 7 4 2 7 8 6 10 10 9 8 7 13 17 11 8 9 16 24 23 21 21 20 18 16 16 16 15 15 14 13 13 12 12 11 11 10 9 9 9 9 10 9 9 10 10 10
14 13 9 6 5 4 5 3 6 9 8 6 6 8 15 15 12 11 12 18 25 22 20 19 20 18 17 16 15 15 14 14 13 12 12 11 11 10 10 9 8 8 8 9 9 9 9 9 9
14 14 7 7 9 7 3 4 7 6 7 6 5 10 10 9 11 10 15 20 23 20 19 21 20 18 17 16 15 14 14 13 13 12 11 11 10 10 9 9 8 8 9 9 8 8 8 8 8
9 10 7 10 15 9 4 6 6 6 5 4 5 10 9 8 8 13 17 21 21 20 19 21 20 18 17 16 15 14 13 12 12 12 11 10 10 10 9 9 8 7 8 8 8 8 8 8 8
11 8 12 16 16 9 3 5 6 6 4 6 8 13 11 12 15 17 17 20 20 20 19 21 20 18 16 15 14 13 13 12 12 11 11 10 9 9 9 9 8 8 8 8 8 8 8 8 8
8 9 14 15 11 7 3 5 6 6 4 7 8 11 9 13 14 16 17 17 19 21 20 19 19 18 16 15 14 13 12 12 11 11 11 10 10 9 9 9 9 9 9 8 9 9 9 9 9
11 13 18 21 18 10 2 4 5 5 5 5 4 8 10 13 13 15 15 15 19 22 20 17 17 16 16 15 14 13 12 12 11 11 11 10 10 10 10 10 10 10 10 10 10 10 11 11 11
12 12 19 20 19 11 3 3 5 4 3 2 2 6 11 15 14 15 14 13 17 20 19 17 16 15 15 14 14 14 13 13 12 12 12 11 11 11 12 12 13 13 12 12 12 12 12 13 13
15 14 17 20 16 12 7 6 7 4 2 6 9 11 16 18 16 15 12 12 13 17 17 16 16 14 14 15 16 15 14 13 13 12 13 12 12 14 15 17 17 17 15 14 14 14 14 14 15
14 15 20 20 18 16 13 10 9 6 5 8 10 12 15 15 14 14 12 13 12 13 15 14 15 14 13 12 14 13 13 14 14 13 15 13 13 12 13 17 21 20 18 17 16 16 15 15 14
18 20 20 22 20 16 14 11 10 6 5 9 7 6 8 12 13 12 11 11 11 9 10 11 12 9 9 6 10 7 8 11 13 13 13 12 10 10 9 7 14 16 17 15 15 16 14 14 13
21 20 20 20 18 15 14 11 9 6 6 8 7 4 5 8 9 11 10 9 12 9 8 8 10 7 2 1 4 4 3 4 6 10 12 9 4 4 3 2 6 9 10 9 9 9 12 12 13
19 19 19 18 17 14 12 10 7 4 6 6 6 5 5 4 5 7 11 9 10 7 6 6 7 6 2 2 2 1 1 1 1 2 5 6 4 5 5 3 2 4 6 7 6 5 7 7 7
17 18 17 16 15 12 9 9 6 2 5 7 9 10 10 9 9 9 8 8 8 6 5 6 6 6 4 2 1 3 4 2 3 2 1 3 3 2 4 4 4 4 5 5 4 6 6 6 6
16 17 18 17 15 11 8 7 0 6 7 9 10 11 14 15 15 14 11 9 8 6 6 7 6 6 4 1 2 2 3 4 2 2 4 3 4 4 4 5 5 5 7 6 5 5 4 7 8
19 17 17 15 12 10 11 4 7 7 8 10 11 10 12 13 14 14 13 12 11 10 10 8 6 6 4 3 2 3 3 4 3 4 5 5 5 6 4 5 6 6 6 4 6 6 6 7 7
15 13 13 8 6 7 7 6 8 6 9 11 10 11 11 11 12 12 12 12 11 11 10 10 8 7 5 3 2 3 2 3 3 4 4 4 6 7 4 6 6 5 5 6 8 6 6 7 7
10 7 6 4 3 3 4 9 9 7 10 11 10 10 9 9 9 9 10 10 10 10 9 8 7 6 4 3 2 2 2 3 2 3 3 5 5 7 5 6 6 6 6 6 7 6 6 6 6
9 7 6 4 3 2 4 9 10 8 9 11 10 9 9 8 8 7 8 8 9 8 8 7 6 5 4 3 4 4 4 4 3 3 3 4 5 6 5 6 5 5 6 7 7 6 7 6 5
10 9 8 4 1 4 3 6 9 7 8 10 10 9 9 8 7 7 7 7 8 7 5 5 5 5 4 3 3 3 3 4 2 2 2 3 4 4 5 4 4 4 5 6 6 6 4 4 5
10 10 9 8 7 9 7 4 8 6 7 8 8 9 9 9 8 7 7 7 6 5 5 5 4 4 4 5 4 4 3 3 3 3 2 3 4 4 3 4 4 4 3 4 6 6 5 5 4
8 10 12 10 9 7 5 2 5 5 3 6 8 8 8 8 8 7 7 6 5 4 4 3 2 2 3 5 5 6 6 5 5 4 3 4 4 3 3 3 4 4 3 3 4 4 4 4 4
8 8 8 12 12 9 5 3 4 7 7 8 8 9 8 7 7 6 5 4 3 2 2 2 2 0 2 4 6 6 6 6 6 6 6 5 4 3 2 2 3 4 3 4 3 3 3 3 4
10 6 9 11 8 8 6 2 3 7 10 11 10 9 8 7 6 5 3 3 2 2 1 1 0 1 3 4 6 6 8 8 8 9 8 6 4 3 2 1 1 2 3 4 4 3 4 3 4
10 6 5 6 4 6 8 2 1 7 10 10 9 8 7 6 5 4 4 4 4 4 3 2 2 3 3 5 6 6 8 8 9 10 8 7 5 4 2 1 0 2 2 3 3 3 3 3 4
9 5 2 4 6 4 1 1 1 5 9 9 7 5 4 3 2 2 2 3 3 4 2 3 4 4 5 5 6 7 8 7 7 8 8 8 7 6 5 3 3 3 3 3 2 2 3 3 3
8 8 8 7 7 1 4 5 2 3 6 6 4 3 2 1 1 2 3 4 5 6 5 5 5 6 6 7 7 8 8 8 8 9 9 8 7 8 6 4 4 4 4 4 3 3 3 3 3
7 10 7 7 8 6 4 4 5 4 3 3 3 3 3 3 5 5 5 5 6 6 6 7 7 8 8 8 8 11 8 8 9 9 9 9 9 9 9 9 8 7 6 6 5 5 4 4 4
8 9 9 8 8 9 5 4 6 3 3 5 6 6 5 6 7 8 8 8 8 9 9 8 8 9 9 9 9 9 9 9 9 9 9 9 9 9 9 9 9 9 8 8 7 7 6 6 5
6 6 8 8 9 8 6 5 4 4 5 7 8 9 9 9 9 9 10 10 10 10 10 10 9 9 9 9 9 9 9 9 10 11 10 10 10 9 9 9 10 10 10 9 9 10 9 8 8
Wind_Direction
182 198 211 228 237 261 288 288 3 37 40 41 38 32 54 53 48 80 116 121 118 125 135 138 137 137 137 138 141 144 145 146 144 143 142 141 139 137 134 132 129 125 121 117 115 113 112 113 113
193 204 215 236 230 233 260 294 14 39 39 31 54 46 65 63 67 101 113 118 119 127 138 140 139 139 139 139 141 145 148 149 149 149 148 147 147 145 143 142 140 136 130 127 126 126 123 123 124
219 224 240 246 244 235 270 19 22 38 48 26 51 64 58 69 77 99 120 126 124 132 137 137 143 141 141 142 143 145 149 151 152 152 153 153 153 153 151 152 151 148 142 139 139 140 137 137 139
226 226 244 255 270 282 325 19 10 16 49 30 49 83 74 64 91 114 130 129 129 135 135 141 144 144 144 145 146 147 150 153 155 157 159 160 161 162 161 161 159 159 155 153 154 154 153 153 155
239 253 248 261 273 292 325 22 353 357 30 30 57 93 93 89 105 124 135 134 139 136 133 143 146 147 148 149 151 152 155 157 160 162 165 167 169 171 171 172 173 171 169 168 168 169 170 171 173
243 254 266 280 291 278 329 16 342 2 16 50 66 90 100 116 126 138 139 146 141 133 134 142 147 149 152 155 158 160 162 166 169 171 174 177 180 184 186 186 186 184 184 185 184 184 185 187 190
256 277 286 293 294 292 348 7 339 344 15 54 88 112 126 128 137 135 141 153 138 133 134 145 150 154 158 161 165 169 171 175 179 181 184 188 190 194 198 199 199 198 197 197 196 196 197 200 202
262 281 285 284 287 301 22 8 323 327 25 29 38 107 136 139 146 139 154 148 135 133 140 150 153 157 163 168 173 177 181 185 188 191 194 198 203 207 210 209 206 206 204 204 206 207 209 210 211
256 265 272 278 298 323 340 342 321 350 344 51 47 76 125 143 148 145 152 145 138 137 143 153 155 162 171 175 175 180 188 193 196 200 204 205 213 214 211 217 209 206 208 211 214 216 218 218 219
242 255 267 283 305 317 322 326 323 335 28 55 62 89 122 146 147 149 158 156 149 143 149 157 156 167 180 182 163 183 191 192 202 205 199 206 223 232 226 207 205 205 208 212 217 221 223 223 227
247 254 272 287 300 310 311 316 322 336 20 50 70 102 145 149 149 156 166 159 146 150 156 153 150 167 181 175 159 191 196 182 198 216 203 205 220 232 241 207 195 202 208 214 217 219 223 223 226
254 256 266 280 293 299 299 303 314 356 36 59 78 109 152 155 162 167 158 153 145 162 161 154 144 151 191 174 157 186 200 177 193 202 208 208 210 240 245 229 190 197 207 213 218 212 214 223 230
264 263 262 268 274 277 280 283 292 346 42 59 67 73 64 93 116 142 142 143 138 153 157 134 126 131 123 33 0 308 298 268 228 202 209 219 210 228 251 260 240 226 219 214 216 215 213 220 228
281 283 279 273 268 265 267 271 262 53 58 65 63 55 46 52 65 74 84 100 115 134 140 120 113 112 105 86 346 324 325 338 313 312 257 240 247 236 248 260 256 245 239 234 222 223 223 228 225
273 272 270 264 257 248 244 253 307 73 70 80 76 64 53 45 47 52 59 65 75 89 88 88 103 99 103 99 333 312 314 312 318 316 312 288 268 265 253 252 254 250 241 237 231 236 227 230 228
274 264 264 257 240 233 231 206 81 81 95 92 87 83 70 55 51 51 54 56 56 62 67 63 64 74 69 58 17 321 323 326 326 319 313 305 292 277 262 256 254 247 240 239 233 231 232 230 229
266 266 268 272 250 238 217 134 102 103 109 102 96 88 80 69 58 55 58 63 62 63 64 62 56 51 42 26 351 306 302 297 298 308 311 312 298 288 276 263 259 256 247 244 247 231 221 235 229
300 298 291 278 211 219 142 126 126 118 119 117 110 100 90 81 70 65 69 73 70 68 65 62 65 49 22 18 347 321 323 324 321 327 328 328 314 300 289 270 262 257 248 242 241 240 228 232 227
287 293 271 217 195 233 172 144 133 136 137 125 116 111 104 96 93 85 79 82 82 76 73 68 61 50 22 19 354 348 344 336 330 325 347 329 312 302 288 284 278 271 257 246 244 240 230 228 230
289 297 300 299 313 273 194 142 128 128 114 112 118 120 122 122 112 104 104 97 89 84 82 82 66 47 23 14 334 306 307 299 310 339 333 323 314 310 299 296 285 277 267 264 259 243 228 234 221
314 324 313 298 279 264 241 168 110 97 104 115 122 129 136 135 128 123 114 106 100 90 74 69 55 37 16 348 329 335 322 308 331 333 333 340 325 313 305 308 295 282 268 258 257 243 223 232 227
312 306 295 293 279 272 262 239 127 144 160 147 146 139 134 131 133 133 132 123 116 117 111 107 85 32 3 342 347 339 326 330 335 334 335 335 316 306 307 314 322 313 299 277 263 242 234 240 248
287 279 325 341 330 312 326 329 153 160 191 176 163 149 141 140 139 138 138 134 132 146 149 154 154 34 335 327 320 320 321 326 326 327 317 311 296 277 290 328 346 348 332 325 318 311 260 246 249
305 309 7 5 351 319 304 306 175 186 185 177 167 153 153 152 155 160 164 167 199 238 272 296 111 299 296 299 305 307 307 308 307 303 299 296 288 283 274 274 10 345 337 336 330 318 283 271 276
317 323 4 1 339 270 269 289 182 177 161 158 153 149 157 159 171 181 201 219 227 244 256 279 296 292 291 293 300 304 304 301 290 284 287 291 293 294 289 317 352 299 301 305 314 321 302 286 281
309 308 277 282 270 255 208 76 100 119 124 127 129 138 151 155 170 216 250 256 269 285 303 309 307 303 298 292 292 290 289 285 288 299 311 308 302 294 281 263 245 247 255 270 282 285 290 293 291
324 329 322 300 302 333 143 137 193 151 114 111 119 118 108 76 313 305 310 314 316 323 333 336 330 321 311 302 297 286 279 284 289 292 288 284 283 287 293 293 271 254 246 248 249 252 254 254 259
322 329 340 334 338 345 95 116 137 125 62 31 42 50 36 353 333 334 333 340 350 350 353 349 339 331 325 316 305 303 304 300 291 287 285 283 281 280 279 272 263 253 242 236 235 237 239 238 232
343 356 356 345 350 339 0 82 109 101 42 26 19 24 7 354 344 342 349 360 358 351 344 344 340 333 325 318 310 306 302 298 295 287 281 279 276 273 271 268 264 256 245 233 228 233 233 235 235
336 0 357 351 342 331 338 106 108 91 62 41 18 9 5 353 345 349 353 355 350 344 340 336 332 325 321 319 316 312 311 308 304 302 299 297 292 283 276 268 262 259 255 239 229 229 231 226 226
Height
1509 1510 1512 1516 1514 1514 1510 1487 1466 1462 1460 1461 1462 1462 1464 1471 1478 1490 1492 1492 1493 1493 1498 1502 1505 1508 1511 1514 1517 1520 1522 1525 1527 1529 1531 1533 1534 1536 1537 1539 1540 1542 1543 1544 1546 1547 1548 1549 1550
1509 1511 1514 1512 1509 1518 1501 1475 1466 1461 1462 1462 1462 1464 1467 1475 1480 1486 1490 1493 1493 1495 1499 1502 1506 1509 1512 1514 1518 1520 1523 1526 1528 1530 1532 1534 1535 1537 1538 1540 1541 1543 1544 1545 1546 1548 1549 1550 1551
1510 1512 1512 1501 1496 1499 1485 1466 1462 1460 1462 1463 1463 1466 1472 1479 1484 1487 1491 1493 1494 1496 1500 1503 1506 1509 1512 1515 1518 1521 1523 1526 1528 1530 1532 1534 1536 1537 1539 1540 1542 1543 1544 1546 1547 1548 1549 1551 1552
1510 1512 1507 1496 1486 1472 1465 1461 1460 1460 1462 1463 1463 1469 1478 1483 1485 1488 1491 1494 1495 1498 1500 1504 1507 1510 1513 1515 1518 1521 1523 1526 1528 1530 1532 1534 1536 1537 1539 1540 1542 1543 1545 1546 1547 1548 1550 1551 1552
1511 1507 1498 1489 1476 1464 1458 1459 1460 1460 1462 1463 1465 1472 1481 1485 1486 1488 1492 1494 1497 1499 1501 1504 1507 1510 1513 1516 1518 1521 1523 1526 1528 1530 1532 1534 1535 1537 1539 1540 1542 1543 1544 1546 1547 1548 1549 1551 1552
1509 1498 1493 1484 1470 1460 1457 1459 1460 1461 1462 1464 1468 1475 1483 1487 1487 1489 1492 1496 1498 1499 1501 1505 1508 1511 1513 1516 1518 1521 1523 1525 1527 1529 1531 1533 1535 1536 1538 1539 1541 1542 1543 1545 1546 1547 1549 1550 1551
1507 1497 1491 1480 1469 1460 1457 1460 1461 1462 1463 1467 1469 1475 1483 1487 1489 1491 1493 1497 1499 1500 1501 1505 1508 1511 1513 1516 1518 1520 1522 1525 1526 1528 1530 1532 1534 1535 1537 1538 1540 1541 1542 1544 1545 1546 1547 1548 1550
1503 1497 1490 1479 1469 1461 1456 1460 1462 1462 1464 1467 1469 1473 1482 1487 1489 1492 1494 1498 1500 1501 1502 1505 1508 1510 1513 1516 1518 1520 1522 1524 1526 1527 1529 1531 1532 1534 1535 1537 1538 1540 1541 1542 1543 1544 1545 1546 1548
1502 1500 1494 1479 1468 1462 1458 1460 1461 1463 1465 1468 1471 1474 1480 1486 1490 1493 1496 1499 1502 1503 1503 1506 1508 1510 1513 1515 1517 1520 1522 1523 1525 1526 1528 1529 1531 1532 1533 1535 1536 1538 1539 1540 1541 1542 1543 1544 1545
1497 1496 1487 1473 1466 1464 1461 1462 1463 1465 1467 1471 1475 1478 1482 1488 1490 1493 1496 1499 1502 1504 1506 1508 1509 1511 1514 1517 1517 1520 1521 1522 1524 1525 1526 1527 1529 1531 1533 1533 1534 1535 1536 1537 1538 1539 1540 1541 1542
1489 1487 1481 1474 1470 1467 1466 1465 1466 1467 1472 1475 1478 1481 1485 1487 1490 1493 1496 1498 1501 1504 1507 1510 1510 1513 1516 1518 1518 1520 1521 1522 1523 1524 1525 1525 1527 1529 1530 1531 1531 1532 1533 1533 1534 1535 1536 1537 1539
1484 1480 1478 1474 1471 1470 1469 1468 1469 1471 1476 1478 1480 1483 1484 1487 1490 1492 1495 1498 1500 1503 1507 1510 1511 1513 1516 1518 1519 1520 1521 1522 1522 1523 1524 1524 1525 1526 1528 1529 1529 1528 1529 1529 1530 1531 1532 1534 1535
1477 1474 1473 1472 1471 1470 1469 1470 1471 1474 1477 1479 1481 1483 1485 1487 1488 1490 1492 1497 1499 1503 1506 1509 1511 1512 1514 1516 1517 1519 1520 1521 1521 1521 1521 1521 1522 1523 1524 1525 1525 1526 1526 1526 1526 1527 1528 1530 1532
1475 1471 1469 1468 1467 1467 1468 1468 1471 1475 1478 1481 1484 1486 1488 1489 1489 1491 1494 1495 1499 1503 1506 1508 1509 1511 1513 1515 1516 1517 1518 1519 1519 1519 1519 1518 1518 1519 1519 1520 1520 1521 1522 1522 1523 1522 1525 1526 1527
1473 1471 1468 1465 1463 1464 1466 1470 1472 1478 1480 1483 1487 1490 1492 1492 1492 1494 1496 1498 1500 1503 1505 1507 1509 1509 1511 1513 1514 1514 1515 1516 1516 1516 1516 1515 1515 1514 1514 1514 1515 1515 1516 1517 1518 1518 1520 1521 1522
1471 1470 1471 1461 1459 1460 1466 1477 1477 1479 1482 1486 1490 1493 1495 1496 1496 1497 1498 1499 1501 1503 1504 1506 1508 1509 1510 1511 1512 1512 1513 1513 1513 1513 1512 1511 1510 1509 1509 1508 1508 1509 1510 1511 1512 1513 1514 1516 1517
1471 1475 1472 1464 1458 1458 1462 1476 1478 1481 1483 1488 1492 1495 1497 1498 1499 1500 1500 1501 1502 1503 1505 1506 1507 1508 1509 1510 1511 1511 1511 1511 1510 1509 1508 1507 1506 1505 1503 1502 1502 1503 1503 1504 1506 1507 1508 1510 1511
1478 1474 1472 1471 1464 1460 1465 1474 1478 1482 1485 1490 1494 1497 1499 1500 1502 1502 1503 1503 1504 1505 1506 1507 1508 1508 1509 1509 1509 1509 1509 1509 1507 1506 1505 1503 1502 1500 1498 1497 1497 1497 1497 1497 1499 1501 1502 1503 1505
1468 1471 1472 1468 1461 1463 1467 1473 1478 1482 1485 1490 1495 1498 1501 1502 1504 1504 1504 1505 1505 1506 1507 1507 1508 1508 1508 1508 1508 1507 1507 1506 1505 1503 1502 1500 1498 1495 1494 1492 1492 1492 1491 1491 1493 1495 1496 1498 1501
1467 1471 1471 1465 1459 1463 1469 1475 1479 1483 1487 1491 1495 1499 1502 1504 1505 1505 1506 1506 1507 1507 1508 1508 1508 1508 1507 1507 1506 1506 1505 1504 1503 1501 1499 1497 1495 1492 1490 1489 1488 1488 1487 1487 1488 1489 1491 1493 1496
1470 1473 1473 1473 1466 1465 1471 1483 1486 1490 1492 1495 1497 1499 1502 1504 1505 1506 1507 1508 1508 1508 1508 1508 1508 1507 1507 1506 1505 1505 1503 1502 1501 1499 1497 1495 1493 1490 1489 1487 1485 1484 1484 1484 1484 1486 1487 1489 1492
1478 1470 1469 1470 1474 1478 1478 1498 1500 1497 1496 1496 1499 1500 1502 1504 1505 1507 1507 1508 1508 1509 1508 1508 1507 1506 1505 1505 1504 1503 1502 1500 1499 1497 1495 1492 1491 1489 1487 1485 1483 1482 1481 1482 1482 1482 1484 1486 1488
1469 1464 1470 1475 1480 1483 1487 1501 1506 1501 1501 1497 1498 1500 1502 1504 1505 1507 1507 1508 1508 1508 1508 1507 1506 1505 1504 1503 1502 1500 1499 1497 1496 1494 1492 1490 1488 1486 1484 1483 1481 1480 1480 1480 1480 1480 1482 1483 1486
1460 1466 1477 1484 1492 1506 1503 1508 1510 1502 1497 1495 1496 1499 1501 1503 1504 1506 1506 1507 1507 1507 1507 1506 1505 1503 1502 1500 1499 1497 1496 1494 1492 1490 1488 1487 1485 1484 1482 1480 1479 1478 1477 1477 1477 1478 1479 1480 1482
1463 1477 1505 1519 1523 1516 1498 1504 1504 1490 1488 1491 1493 1496 1499 1501 1502 1504 1504 1505 1505 1504 1504 1503 1502 1500 1498 1497 1495 1494 1492 1490 1488 1486 1485 1483 1482 1481 1479 1478 1476 1475 1475 1474 1474 1474 1475 1476 1478
1465 1472 1498 1514 1512 1503 1501 1510 1499 1489 1489 1491 1493 1495 1497 1499 1501 1501 1502 1502 1502 1502 1501 1500 1499 1497 1495 1493 1491 1490 1488 1486 1484 1482 1481 1479 1478 1477 1476 1474 1473 1472 1471 1471 1471 1470 1471 1472 1473
1466 1466 1464 1477 1480 1492 1503 1506 1498 1488 1488 1489 1491 1493 1495 1497 1498 1499 1500 1500 1500 1499 1498 1497 1496 1494 1492 1490 1487 1485 1483 1481 1479 1477 1475 1474 1473 1472 1471 1470 1469 1468 1468 1467 1467 1466 1466 1467 1468
1462 1460 1466 1476 1488 1492 1498 1502 1502 1494 1490 1488 1490 1492 1494 1496 1497 1497 1498 1498 1497 1496 1495 1494 1492 1490 1488 1485 1483 1481 1478 1476 1474 1471 1470 1468 1467 1466 1465 1464 1463 1463 1463 1462 1462 1462 1462 1463 1463
1467 1468 1470 1473 1476 1489 1498 1506 1488 1489 1487 1488 1489 1491 1493 1494 1495 1496 1496 1496 1495 1494 1493 1491 1488 1486 1484 1481 1478 1476 1473 1470 1468 1466 1464 1462 1460 1459 1458 1457 1457 1457 1457 1457 1457 1457 1458 1458 1458
1468 1471 1474 1487 1488 1481 1486 1502 1481 1483 1485 1487 1489 1491 1493 1494 1495 1495 1494 1494 1493 1491 1490 1487 1485 1482 1479 1476 1473 1470 1467 1465 1462 1460 1457 1455 1453 1452 1451 1450 1450 1450 1450 1450 1451 1451 1452 1453 1453